LION02 OJAQ-OJAQ

Flight info

Callsign LION02
Flight time 0h 36m
Altitude 3500
Route VFR
Aircraft PC21/L-SBDFGRVY/C

Departure

Time 2026-05-06 21:06
Airport King Hussein International Airport (OJAQ)

Arrival

Time 2026-05-06 21:43
Airport King Hussein International Airport (OJAQ)
Time Latitude Longitude Altitude Speed Heading
2026-05-06 20:49 29.60890 35.01976 151 ft 0 kts 14°
2026-05-06 21:02 29.60894 35.01976 151 ft 2 kts 351°
2026-05-06 21:02 29.60926 35.01973 150 ft 8 kts 21°
2026-05-06 21:02 29.61004 35.01976 149 ft 15 kts 353°
2026-05-06 21:02 29.61125 35.01993 146 ft 20 kts 16°
2026-05-06 21:03 29.61272 35.02048 142 ft 25 kts 19°
2026-05-06 21:03 29.61448 35.02114 138 ft 28 kts 17°
2026-05-06 21:03 29.61577 35.02160 136 ft 30 kts 18°
2026-05-06 21:03 29.61772 35.02228 128 ft 28 kts 17°
2026-05-06 21:04 29.61948 35.02278 127 ft 25 kts 14°
2026-05-06 21:04 29.62105 35.02323 123 ft 17 kts 16°
2026-05-06 21:04 29.62173 35.02260 122 ft 9 kts 260°
2026-05-06 21:04 29.62147 35.02206 123 ft 7 kts 240°
2026-05-06 21:05 29.62125 35.02163 125 ft 6 kts 234°
2026-05-06 21:05 29.62096 35.02133 125 ft 5 kts 207°
2026-05-06 21:05 29.62060 35.02118 127 ft 6 kts 198°
2026-05-06 21:05 29.61915 35.02066 130 ft 60 kts 196°
2026-05-06 21:06 29.61235 35.01825 171 ft 135 kts 196°
2026-05-06 21:06 29.60164 35.01474 599 ft 180 kts 194°
2026-05-06 21:06 29.59014 35.01130 1792 ft 167 kts 195°
2026-05-06 21:06 29.57801 35.00802 2262 ft 190 kts 192°
2026-05-06 21:07 29.56416 35.00493 2621 ft 218 kts 191°
2026-05-06 21:07 29.54828 35.00365 2894 ft 243 kts 168°
2026-05-06 21:07 29.53321 35.01345 3228 ft 253 kts 128°
2026-05-06 21:07 29.52680 35.03156 3885 ft 246 kts 89°
2026-05-06 21:08 29.53689 35.04034 4500 ft 242 kts 341°
2026-05-06 21:08 29.55352 35.03457 4802 ft 252 kts 349°
2026-05-06 21:08 29.57082 35.03099 5495 ft 250 kts 351°
2026-05-06 21:08 29.58792 35.02767 6227 ft 252 kts 354°
2026-05-06 21:09 29.60569 35.02908 6651 ft 265 kts
2026-05-06 21:09 29.62460 35.03319 6842 ft 286 kts 12°
2026-05-06 21:09 29.64482 35.03843 6935 ft 309 kts 13°
2026-05-06 21:09 29.66623 35.04445 6977 ft 322 kts 14°
2026-05-06 21:10 29.68826 35.05082 6998 ft 331 kts 14°
2026-05-06 21:10 29.71056 35.05737 7009 ft 337 kts 14°
2026-05-06 21:10 29.73353 35.06415 7010 ft 339 kts 14°
2026-05-06 21:10 29.75641 35.07093 7027 ft 340 kts 14°
2026-05-06 21:11 29.77804 35.07735 7022 ft 339 kts 14°
2026-05-06 21:11 29.80064 35.08405 7016 ft 331 kts 14°
2026-05-06 21:11 29.82274 35.09062 7013 ft 326 kts 14°
2026-05-06 21:11 29.84464 35.09713 7014 ft 323 kts 14°
2026-05-06 21:12 29.86645 35.10387 7010 ft 321 kts 16°
2026-05-06 21:12 29.88773 35.11110 7015 ft 320 kts 17°
2026-05-06 21:12 29.90914 35.11863 7017 ft 319 kts 17°
2026-05-06 21:12 29.93034 35.12619 7018 ft 318 kts 17°
2026-05-06 21:13 29.95113 35.13396 7007 ft 312 kts 23°
2026-05-06 21:13 29.96810 35.14905 7013 ft 312 kts 54°
2026-05-06 21:13 29.97597 35.17181 7028 ft 309 kts 85°
2026-05-06 21:13 29.97449 35.19622 7032 ft 307 kts 101°
2026-05-06 21:14 29.97049 35.22059 7030 ft 307 kts 103°
2026-05-06 21:14 29.96659 35.24456 7024 ft 307 kts 101°
2026-05-06 21:14 29.96386 35.26930 7012 ft 307 kts 97°
2026-05-06 21:14 29.96208 35.29375 7033 ft 308 kts 95°
2026-05-06 21:15 29.96060 35.31818 7022 ft 308 kts 95°
2026-05-06 21:15 29.95922 35.34283 7021 ft 306 kts 95°
2026-05-06 21:15 29.95791 35.36712 7021 ft 299 kts 95°
2026-05-06 21:15 29.95665 35.39099 7024 ft 294 kts 95°
2026-05-06 21:16 29.95532 35.41440 7019 ft 291 kts 98°
2026-05-06 21:16 29.94800 35.43544 7024 ft 284 kts 130°
2026-05-06 21:16 29.93206 35.44790 7036 ft 280 kts 163°
2026-05-06 21:16 29.91848 35.44080 7610 ft 247 kts 282°
2026-05-06 21:17 29.93003 35.42767 8286 ft 237 kts 338°
2026-05-06 21:17 29.94653 35.42705 8405 ft 251 kts 16°
2026-05-06 21:17 29.96176 35.43694 8740 ft 248 kts 40°
2026-05-06 21:17 29.95592 35.44438 8208 ft 244 kts 194°
2026-05-06 21:18 29.93789 35.43827 7482 ft 280 kts 205°
2026-05-06 21:18 29.92177 35.42672 6992 ft 262 kts 212°
2026-05-06 21:18 29.90764 35.41569 6777 ft 236 kts 213°
2026-05-06 21:18 29.89476 35.40588 6778 ft 209 kts 207°
2026-05-06 21:19 29.88318 35.39863 6986 ft 161 kts 208°
2026-05-06 21:19 29.87411 35.39214 6957 ft 140 kts 211°
2026-05-06 21:19 29.86703 35.38689 6968 ft 110 kts 209°
2026-05-06 21:19 29.85988 35.38144 6911 ft 132 kts 211°
2026-05-06 21:20 29.85186 35.37532 6988 ft 139 kts 213°
2026-05-06 21:20 29.84455 35.36975 6973 ft 120 kts 210°
2026-05-06 21:20 29.84023 35.36499 5422 ft 139 kts 49°
2026-05-06 21:20 29.84357 35.36931 6898 ft 91 kts 240°
2026-05-06 21:21 29.83867 35.36015 6594 ft 170 kts 225°
2026-05-06 21:21 29.82890 35.35165 6861 ft 186 kts 214°
2026-05-06 21:21 29.81826 35.34201 7014 ft 196 kts 223°
2026-05-06 21:21 29.81029 35.33086 6848 ft 127 kts 230°
2026-05-06 21:22 29.80167 35.32657 5703 ft 152 kts 225°
2026-05-06 21:22 29.79487 35.31765 5977 ft 147 kts 223°
2026-05-06 21:22 29.78646 35.31011 6280 ft 148 kts 207°
2026-05-06 21:22 29.77751 35.30467 6668 ft 150 kts 210°
2026-05-06 21:23 29.76856 35.29810 6860 ft 154 kts 217°
2026-05-06 21:23 29.76051 35.28996 6939 ft 154 kts 221°
2026-05-06 21:23 29.75285 35.28134 6979 ft 152 kts 223°
2026-05-06 21:23 29.74543 35.27263 6996 ft 151 kts 224°
2026-05-06 21:24 29.73806 35.26387 6830 ft 149 kts 224°
2026-05-06 21:24 29.73122 35.25627 6943 ft 122 kts 218°
2026-05-06 21:24 29.72496 35.25053 6954 ft 115 kts 214°
2026-05-06 21:24 29.71771 35.24538 7013 ft 137 kts 204°
2026-05-06 21:25 29.70807 35.24018 7078 ft 159 kts 202°
2026-05-06 21:25 29.69795 35.23516 7083 ft 156 kts 201°
2026-05-06 21:25 29.68798 35.23040 7071 ft 155 kts 201°
2026-05-06 21:25 29.67804 35.22572 7050 ft 154 kts 201°
2026-05-06 21:26 29.66818 35.22112 7040 ft 153 kts 201°
2026-05-06 21:26 29.65828 35.21650 7029 ft 152 kts 201°
2026-05-06 21:26 29.64853 35.21175 7026 ft 153 kts 210°
2026-05-06 21:26 29.64352 35.20161 7053 ft 156 kts 273°
2026-05-06 21:27 29.64887 35.19096 7084 ft 162 kts 319°
2026-05-06 21:27 29.65776 35.18312 7061 ft 162 kts 324°
2026-05-06 21:27 29.66712 35.17579 7057 ft 161 kts 326°
2026-05-06 21:27 29.67652 35.16881 7042 ft 161 kts 327°
2026-05-06 21:28 29.68517 35.16077 6998 ft 161 kts 313°
2026-05-06 21:28 29.69281 35.15111 6773 ft 164 kts 309°
2026-05-06 21:28 29.69939 35.14049 6554 ft 162 kts 300°
2026-05-06 21:28 29.70513 35.12937 6309 ft 159 kts 298°
2026-05-06 21:29 29.71043 35.11841 6084 ft 156 kts 297°
2026-05-06 21:29 29.71561 35.10715 5594 ft 159 kts 297°
2026-05-06 21:29 29.71868 35.09530 5013 ft 159 kts 262°
2026-05-06 21:29 29.71235 35.08550 4421 ft 158 kts 204°
2026-05-06 21:30 29.70197 35.08162 3820 ft 158 kts 212°
2026-05-06 21:30 29.69395 35.07315 3305 ft 152 kts 233°
2026-05-06 21:30 29.68798 35.06340 2841 ft 147 kts 242°
2026-05-06 21:30 29.68234 35.05388 2447 ft 142 kts 215°
2026-05-06 21:31 29.67285 35.04938 2021 ft 151 kts 200°
2026-05-06 21:31 29.66342 35.04487 1643 ft 140 kts 207°
2026-05-06 21:31 29.65508 35.04068 1391 ft 123 kts 202°
2026-05-06 21:31 29.64765 35.03681 1090 ft 119 kts 205°
2026-05-06 21:32 29.64002 35.03322 800 ft 121 kts 205°
2026-05-06 21:32 29.62361 35.02684 235 ft 112 kts 237°
2026-05-06 21:32 29.61864 35.02051 143 ft 112 kts 204°
2026-05-06 21:33 29.61216 35.01801 144 ft 88 kts 196°
2026-05-06 21:33 29.60910 35.01709 153 ft 88 kts 191°
2026-05-06 21:33 29.60081 35.01416 207 ft 158 kts 196°
2026-05-06 21:33 29.58848 35.01081 874 ft 189 kts 181°
2026-05-06 21:34 29.58645 35.01995 1890 ft 157 kts 12°
2026-05-06 21:34 29.59906 35.01924 2313 ft 194 kts 350°
2026-05-06 21:34 29.61284 35.01888 2727 ft 212 kts 26°
2026-05-06 21:34 29.61838 35.02313 2761 ft 225 kts 33°
2026-05-06 21:35 29.62341 35.03104 2933 ft 225 kts 123°
2026-05-06 21:36 29.60951 35.02680 2944 ft 243 kts 186°
2026-05-06 21:36 29.59510 35.02947 3267 ft 254 kts 167°
2026-05-06 21:36 29.58484 35.03143 3306 ft 265 kts 174°
2026-05-06 21:36 29.56633 35.03342 3709 ft 263 kts 172°
2026-05-06 21:37 29.54805 35.03436 3964 ft 272 kts 190°
2026-05-06 21:37 29.53319 35.02223 4460 ft 252 kts 218°
2026-05-06 21:37 29.51898 35.02052 5882 ft 217 kts 177°
2026-05-06 21:37 29.50231 35.02108 5696 ft 256 kts 178°
2026-05-06 21:38 29.48607 35.01488 4921 ft 281 kts 235°
2026-05-06 21:38 29.48206 34.99325 4412 ft 266 kts 277°
2026-05-06 21:38 29.48819 34.97473 4135 ft 238 kts 305°
2026-05-06 21:38 29.49962 34.96595 4164 ft 198 kts 358°
2026-05-06 21:39 29.50431 34.96652 4016 ft 196 kts 18°
2026-05-06 21:39 29.52127 34.97493 3270 ft 202 kts 24°
2026-05-06 21:39 29.52989 34.97954 2973 ft 201 kts 23°
2026-05-06 21:40 29.54324 34.98513 2042 ft 216 kts 22°
2026-05-06 21:40 29.55705 34.99165 1409 ft 212 kts 19°
2026-05-06 21:40 29.56898 34.99723 1203 ft 162 kts 20°
2026-05-06 21:40 29.57926 35.00123 959 ft 158 kts 18°
2026-05-06 21:41 29.58902 35.00803 620 ft 168 kts 31°
2026-05-06 21:41 29.59813 35.01347 439 ft 125 kts 16°
2026-05-06 21:41 29.60578 35.01677 306 ft 122 kts
2026-05-06 21:41 29.61492 35.01979 342 ft 147 kts 39°
2026-05-06 21:42 29.61833 35.03126 619 ft 158 kts 63°
2026-05-06 21:42 29.62609 35.03084 678 ft 131 kts 312°
2026-05-06 21:42 29.62420 35.02247 217 ft 139 kts 204°
2026-05-06 21:42 29.61583 35.01960 138 ft 107 kts 194°
2026-05-06 21:43 29.61239 35.01815 144 ft 91 kts 192°
2026-05-06 21:43 29.60946 35.01736 151 ft 19 kts 176°
2026-05-06 21:43 29.60827 35.01728 154 ft 18 kts 208°
2026-05-06 21:43 29.60706 35.01651 157 ft 24 kts 198°
2026-05-06 21:44 29.60524 35.01580 162 ft 31 kts 198°
2026-05-06 21:44 29.60313 35.01508 166 ft 31 kts 195°
2026-05-06 21:44 29.60118 35.01426 170 ft 28 kts 200°
2026-05-06 21:44 29.60025 35.01447 172 ft 12 kts 128°
2026-05-06 21:45 29.59994 35.01481 174 ft 10 kts 151°
2026-05-06 21:45 29.59972 35.01502 174 ft 9 kts 130°
2026-05-06 21:45 29.59964 35.01563 174 ft 9 kts 43°
2026-05-06 21:45 29.60019 35.01602 173 ft 10 kts 15°
2026-05-06 21:46 29.60085 35.01626 171 ft 10 kts 17°
2026-05-06 21:46 29.60156 35.01651 169 ft 11 kts 16°
2026-05-06 21:46 29.60230 35.01676 167 ft 11 kts 22°
2026-05-06 21:46 29.60304 35.01703 166 ft 11 kts 14°
2026-05-06 21:47 29.60383 35.01733 164 ft 16 kts 14°
2026-05-06 21:47 29.60540 35.01786 160 ft 30 kts 18°
2026-05-06 21:47 29.60680 35.01836 157 ft 37 kts 13°
2026-05-06 21:47 29.60903 35.01929 151 ft 24 kts 41°
2026-05-06 21:48 29.60959 35.02015 149 ft 0 kts 94°